• In Germany
  • List of Countries
  • For 7 days
  • Water Temperature
  • Satellite Maps
  • Weather Map
  • Weather Widgets
  • user-avatar
    Login

    Hourly Weather Razgrad

    Today, 26 September, Tuesday

    Time Temperature Precipitation Wind Pressure Humidity
    00:00 +15°C° 0 mm 2 mps 744 mmHg 85%
    01:00 +15°C° 0 mm 2 mps 744 mmHg 87%
    02:00 +14°C° 0 mm 2 mps 744 mmHg 89%
    03:00 +14°C° 0 mm 2 mps 744 mmHg 88%
    04:00 +14°C° 0 mm 2 mps 744 mmHg 88%
    05:00 +14°C° 0 mm 2 mps 743 mmHg 87%
    06:00 +14°C° 0 mm 3 mps 744 mmHg 83%
    07:00 +16°C° 0 mm 3 mps 744 mmHg 78%
    08:00 +17°C° 0 mm 4 mps 744 mmHg 74%
    09:00 +19°C° 0 mm 4 mps 744 mmHg 69%
    10:00 +20°C° 0 mm 4 mps 744 mmHg 64%
    11:00 +22°C° 0 mm 5 mps 744 mmHg 60%
    12:00 +22°C° 1.2 mm 5 mps 744 mmHg 61%
    13:00 +22°C° 1.2 mm 6 mps 744 mmHg 63%
    14:00 +22°C° 1.2 mm 7 mps 744 mmHg 65%
    15:00 +21°C° 1 mm 6 mps 744 mmHg 68%
    16:00 +20°C° 1 mm 6 mps 744 mmHg 70%
    17:00 +19°C° 1 mm 5 mps 744 mmHg 73%
    18:00 +19°C° 0.1 mm 5 mps 744 mmHg 74%
    19:00 +18°C° 0.1 mm 4 mps 745 mmHg 76%
    20:00 +17°C° 0.1 mm 4 mps 745 mmHg 77%
    21:00 +17°C° 0 mm 4 mps 745 mmHg 76%
    22:00 +15°C° 0 mm 4 mps 745 mmHg 75%
    23:00 +15°C° 0 mm 4 mps 746 mmHg 75%

    Tomorrow, 27 September, Wednesday

    Time Temperature Precipitation Wind Pressure Humidity
    00:00 +14°C° 0 mm 4 mps 746 mmHg 74%
    01:00 +14°C° 0 mm 4 mps 746 mmHg 74%
    02:00 +13°C° 0 mm 4 mps 746 mmHg 73%
    03:00 +13°C° 0 mm 4 mps 746 mmHg 72%
    04:00 +13°C° 0 mm 4 mps 746 mmHg 72%
    05:00 +13°C° 0 mm 4 mps 746 mmHg 71%
    06:00 +13°C° 0.1 mm 4 mps 746 mmHg 69%
    07:00 +13°C° 0.1 mm 4 mps 747 mmHg 68%
    08:00 +14°C° 0.1 mm 5 mps 747 mmHg 66%
    09:00 +15°C° 0.1 mm 5 mps 748 mmHg 65%
    10:00 +16°C° 0.1 mm 5 mps 748 mmHg 64%
    11:00 +17°C° 0.1 mm 5 mps 749 mmHg 63%
    12:00 +17°C° 0.1 mm 5 mps 748 mmHg 63%
    13:00 +17°C° 0.1 mm 5 mps 748 mmHg 64%
    14:00 +17°C° 0.1 mm 5 mps 748 mmHg 65%
    15:00 +17°C° 0 mm 5 mps 749 mmHg 63%
    16:00 +18°C° 0 mm 4 mps 749 mmHg 61%
    17:00 +18°C° 0 mm 4 mps 749 mmHg 59%
    18:00 +17°C° 0 mm 4 mps 749 mmHg 63%
    19:00 +16°C° 0 mm 3 mps 749 mmHg 66%
    20:00 +14°C° 0 mm 3 mps 750 mmHg 70%
    21:00 +13°C° 0 mm 3 mps 750 mmHg 73%
    22:00 +12°C° 0 mm 3 mps 750 mmHg 76%
    23:00 +12°C° 0 mm 2 mps 750 mmHg 78%

    Day after tomorrow, 28 September, Thursday

    Time Temperature Precipitation Wind Pressure Humidity
    00:00 +12°C° 0 mm 2 mps 750 mmHg 79%
    01:00 +10°C° 0 mm 2 mps 750 mmHg 79%
    02:00 +10°C° 0 mm 2 mps 750 mmHg 80%
    03:00 +10°C° 0 mm 2 mps 750 mmHg 77%
    04:00 +10°C° 0 mm 2 mps 750 mmHg 75%
    05:00 +10°C° 0 mm 3 mps 750 mmHg 72%
    06:00 +11°C° 0 mm 3 mps 750 mmHg 70%
    07:00 +11°C° 0 mm 3 mps 750 mmHg 68%
    08:00 +12°C° 0 mm 4 mps 751 mmHg 65%
    09:00 +13°C° 0 mm 4 mps 751 mmHg 61%
    10:00 +14°C° 0 mm 5 mps 751 mmHg 57%
    11:00 +16°C° 0 mm 5 mps 751 mmHg 53%
    12:00 +16°C° 0 mm 5 mps 751 mmHg 52%
    13:00 +16°C° 0 mm 5 mps 751 mmHg 50%
    14:00 +16°C° 0 mm 5 mps 750 mmHg 49%
    15:00 +16°C° 0 mm 5 mps 750 mmHg 49%
    16:00 +16°C° 0 mm 5 mps 750 mmHg 50%
    17:00 +15°C° 0 mm 5 mps 750 mmHg 51%
    18:00 +14°C° 0 mm 4 mps 750 mmHg 56%
    19:00 +13°C° 0 mm 4 mps 750 mmHg 62%
    20:00 +11°C° 0 mm 3 mps 750 mmHg 68%
    21:00 +11°C° 0 mm 3 mps 750 mmHg 70%
    22:00 +10°C° 0 mm 3 mps 750 mmHg 73%
    23:00 +9°C° 0 mm 3 mps 750 mmHg 75%

    29 September, Friday

    Time Temperature Precipitation Wind Pressure Humidity
    00:00 +9°C° 0 mm 3 mps 750 mmHg 75%
    01:00 +8°C° 0 mm 3 mps 750 mmHg 75%
    02:00 +8°C° 0 mm 2 mps 750 mmHg 75%
    03:00 +8°C° 0 mm 3 mps 749 mmHg 74%
    04:00 +7°C° 0 mm 3 mps 749 mmHg 72%
    05:00 +7°C° 0 mm 3 mps 749 mmHg 70%
    06:00 +8°C° 0 mm 3 mps 749 mmHg 66%
    07:00 +8°C° 0 mm 4 mps 749 mmHg 62%
    08:00 +10°C° 0 mm 4 mps 749 mmHg 58%
    09:00 +10°C° 0 mm 5 mps 749 mmHg 54%
    10:00 +13°C° 0 mm 5 mps 749 mmHg 51%
    11:00 +14°C° 0 mm 6 mps 749 mmHg 47%
    12:00 +15°C° 0 mm 6 mps 749 mmHg 47%
    13:00 +15°C° 0 mm 5 mps 748 mmHg 46%
    14:00 +15°C° 0 mm 5 mps 748 mmHg 46%
    15:00 +15°C° 0 mm 5 mps 748 mmHg 44%
    16:00 +15°C° 0 mm 4 mps 748 mmHg 43%
    17:00 +15°C° 0 mm 4 mps 747 mmHg 41%
    18:00 +13°C° 0 mm 3 mps 748 mmHg 45%
    19:00 +12°C° 0 mm 3 mps 748 mmHg 49%
    20:00 +10°C° 0 mm 2 mps 748 mmHg 53%
    21:00 +9°C° 0 mm 2 mps 748 mmHg 55%
    22:00 +9°C° 0 mm 2 mps 747 mmHg 58%
    23:00 +8°C° 0 mm 2 mps 747 mmHg 60%

    30 September, Saturday

    Time Temperature Precipitation Wind Pressure Humidity
    00:00 +7°C° 0 mm 2 mps 747 mmHg 60%
    01:00 +7°C° 0 mm 2 mps 747 mmHg 61%
    02:00 +7°C° 0 mm 2 mps 747 mmHg 62%
    03:00 +6°C° 0 mm 2 mps 747 mmHg 62%
    04:00 +6°C° 0 mm 2 mps 747 mmHg 63%
    05:00 +5°C° 0 mm 2 mps 746 mmHg 64%
    06:00 +6°C° 0 mm 2 mps 746 mmHg 60%
    07:00 +7°C° 0 mm 2 mps 746 mmHg 57%
    08:00 +8°C° 0 mm 2 mps 747 mmHg 53%
    09:00 +10°C° 0 mm 3 mps 746 mmHg 47%
    10:00 +12°C° 0 mm 3 mps 746 mmHg 41%
    11:00 +14°C° 0 mm 4 mps 746 mmHg 34%
    12:00 +15°C° 0 mm 4 mps 746 mmHg 32%
    13:00 +17°C° 0 mm 4 mps 745 mmHg 29%
    14:00 +18°C° 0 mm 3 mps 745 mmHg 26%
    15:00 +17°C° 0 mm 3 mps 745 mmHg 27%
    16:00 +17°C° 0 mm 3 mps 745 mmHg 27%
    17:00 +16°C° 0 mm 2 mps 744 mmHg 28%
    18:00 +15°C° 0 mm 2 mps 745 mmHg 32%
    19:00 +13°C° 0 mm 2 mps 745 mmHg 36%
    20:00 +11°C° 0 mm 1 mps 745 mmHg 39%
    21:00 +10°C° 0 mm 1 mps 745 mmHg 41%
    22:00 +9°C° 0 mm 1 mps 745 mmHg 42%
    23:00 +9°C° 0 mm 1 mps 745 mmHg 44%

    1 October, Sunday

    Time Temperature Precipitation Wind Pressure Humidity
    00:00 +8°C° 0 mm 1 mps 745 mmHg 45%
    01:00 +8°C° 0 mm 1 mps 745 mmHg 46%
    02:00 +7°C° 0 mm 0 mps 745 mmHg 47%
    03:00 +7°C° 0 mm 0 mps 744 mmHg 48%
    04:00 +6°C° 0 mm 0 mps 744 mmHg 49%
    05:00 +6°C° 0 mm 0 mps 744 mmHg 49%
    06:00 +7°C° 0 mm 0 mps 744 mmHg 46%
    07:00 +9°C° 0 mm 0 mps 744 mmHg 43%
    08:00 +10°C° 0 mm 0 mps 745 mmHg 40%
    09:00 +12°C° 0 mm 0 mps 745 mmHg 35%
    10:00 +15°C° 0 mm 0 mps 744 mmHg 30%
    11:00 +19°C° 0 mm 1 mps 744 mmHg 26%
    12:00 +19°C° 0 mm 1 mps 744 mmHg 24%
    13:00 +20°C° 0 mm 1 mps 744 mmHg 23%
    14:00 +21°C° 0 mm 1 mps 743 mmHg 21%
    15:00 +20°C° 0 mm 1 mps 743 mmHg 23%
    16:00 +19°C° 0 mm 1 mps 743 mmHg 24%
    17:00 +19°C° 0 mm 1 mps 742 mmHg 26%
    18:00 +16°C° 0 mm 1 mps 743 mmHg 28%
    19:00 +14°C° 0 mm 1 mps 743 mmHg 31%
    20:00 +12°C° 0 mm 1 mps 743 mmHg 33%
    21:00 +11°C° 0 mm 1 mps 743 mmHg 35%
    22:00 +11°C° 0 mm 1 mps 743 mmHg 36%
    23:00 +10°C° 0 mm 1 mps 743 mmHg 38%
    Show more